Location: Newark
(42.8481°N, 0.4872°E)
Time: 22:14:44
(UTC+00:00)

Transit 2A - Pass Details

Date: 27 October 2020
Orbit: 595 x 963 km, 66.7° (Epoch: 03 December)

Event Time Altitude Azimuth Distance (km) Brightness Sun altitude
Rises 07:26:46 0° 336° (NNW) 3,535 9.0 9.4°
Reaches altitude 10° 07:32:37 10° 20° (NNE) 2,479 8.6 10.3°
Maximum altitude 07:33:05 10° 24° (NNE) 2,462 8.6 10.4°
Drops below altitude 10° 07:33:34 10° 29° (NNE) 2,458 8.7 10.5°
Sets 07:39:00 0° 74° (ENE) 3,255 10.0 11.3°
